BEIDOU-3 M1 (C19)

Last updated on Oct. 28, 2020, 5:53 a.m. UTC

1 43001U 17069A   20301.35664742  .00000075  00000-0  00000-0 0  9996
2 43001  55.2618 131.7650 0007364 293.3441 357.9706  1.86231862 20259
UTC
Height (km)
Latitude
Longitude
Inclination
Orbital Period
UTC large
Height (km)
Speed (km/s)
/
Latitude / Longitude
Inclination (degrees)
Orbital Period (minutes)
Azimuth
Elevation
Range (km)
Doppler Factor
iOS Compass Heading
iOS Angle

Next 30 passes for location: Hong Kong

Rise time Rise Azimuth (degrees) Set time Set Azimuth (degrees) Duration Max altitude (degrees)

No matching passes for this satellites